Location: Coopersdale
(40.3556°N, 78.9372°W)
Time: 09:48:27
(UTC+00:00)

Vanguard 1 - Pass Details

Date: 22 January 2021
Orbit: 649 x 3834 km, 34.2° (Epoch: 07 March)

Event Time Altitude Azimuth Distance (km) Brightness Sun altitude
Rises 00:57:34 0° 285° (WNW) 7,976 15.8 -29.6°
Reaches altitude 10° 01:03:41 10° 279° (W) 6,845 15.2 -30.7°
Maximum altitude 01:22:42 40° 220° (SW) 3,838 13.1 -34.3°
Enters shadow 01:33:16 16° 162° (SSE) 4,235 13.0 -36.3°
